Date String (YYYY-MM-DD hh:mm:ss) UTC,Instrument flags,absolute air pressure of the measurement (hPa),sample flow rate (lpm),inlet stack bypass flow (lpm),air temperature of the measurement (°C),ambient temperature measured by the external sensor (°C),aerosol sample conditioner tube jacket temperature (°C),OPC LED temperature (°C),internal box temperature (°C),relative humidity of the measurement (%),span deviation,mass concentration of particles derived from Lorenz-Mie calculation of OPC scattering (μg/m³),mass concentration of particles derived from Lorenz-Mie calculation of OPC scattering (μg/m³),mass concentration of particles derived from Lorenz-Mie calculation of OPC scattering (μg/m³)
DateTimeUTC,F1_M11,P_M11,Q1_M11,Q2_M11,T1_M11,T2_M11,T3_M11,T4_M11,T5_M11,U1_M11,ZSPAN_M11,X0_M11,X2_M11,X1_M11
2023-07-30 19:00:00,SystemResetWarning,0835.5,5.00,000.00,031.3,027.0,000.0,038.7,030.9,29.4,0000.0,0013.16,0006.11,0005.08
2023-07-30 19:01:00,SystemResetWarning,0835.5,5.00,000.00,031.3,027.1,000.0,038.7,031.0,28.9,0000.0,0013.47,0006.15,0005.08
2023-07-30 19:02:00,SystemResetWarning,0835.5,4.98,000.00,031.3,026.0,000.0,038.6,030.9,29.2,0000.0,0013.00,0006.16,0005.08
2023-07-30 19:03:00,SystemResetWarning,0835.5,5.01,000.00,031.2,025.3,000.0,038.6,030.8,29.7,0000.0,0013.07,0006.18,0005.09
2023-07-30 19:04:00,SystemResetWarning,0835.5,5.01,000.00,031.1,025.5,000.0,038.6,030.6,30.1,0000.0,0013.21,0006.20,0005.10
2023-07-30 19:05:00,SystemResetWarning,0835.5,5.00,000.00,031.0,025.8,000.0,038.6,030.6,30.5,0000.0,0012.81,0006.19,0005.11
2023-07-30 19:06:00,SystemResetWarning,0835.5,5.00,000.00,030.9,026.3,000.0,038.7,030.7,32.5,0000.0,0012.91,0006.24,0005.14
2023-07-30 19:07:00,SystemResetWarning,0835.5,5.00,000.00,030.9,026.7,000.0,038.7,030.9,32.7,0000.0,0012.73,0006.28,0005.15
2023-07-30 19:08:00,SystemResetWarning,0835.5,4.97,000.00,030.8,027.1,000.0,038.7,031.0,35.0,0000.0,0012.76,0006.31,0005.16
2023-07-30 19:09:00,SystemResetWarning,0835.5,5.01,000.00,031.0,027.2,000.0,038.7,031.1,36.4,0000.0,0012.73,0006.29,0005.15
2023-07-30 19:10:00,SystemResetWarning,0835.5,5.01,000.00,031.2,026.1,000.0,038.6,031.1,35.9,0000.0,0012.54,0006.24,0005.10
2023-07-30 19:11:00,SystemResetWarning,0835.5,4.98,000.00,031.5,025.4,000.0,038.5,031.1,34.7,0000.0,0012.06,0006.18,0005.07
2023-07-30 19:12:00,SystemResetWarning,0835.5,4.99,000.00,031.6,025.5,000.0,038.5,031.0,35.0,0000.0,0011.11,0006.11,0005.04
2023-07-30 19:13:00,SystemResetWarning,0835.5,5.02,000.00,031.6,025.9,000.0,038.6,030.9,35.0,0000.0,0010.84,0006.03,0005.01
2023-07-30 19:14:00,SystemResetWarning,0835.5,5.00,000.00,031.7,026.3,000.0,038.7,031.0,35.0,0000.0,0011.06,0006.00,0004.98
2023-07-30 19:15:00,SystemResetWarning,0835.5,5.01,000.00,031.8,026.7,000.0,038.8,031.2,34.8,0000.0,0011.95,0006.00,0004.95
2023-07-30 19:16:00,SystemResetWarning,0835.5,4.98,000.00,032.0,027.1,000.0,038.9,031.3,34.7,0000.0,0011.93,0005.95,0004.90
2023-07-30 19:17:00,SystemResetWarning,0835.5,5.00,000.00,032.1,026.5,000.0,038.9,031.3,34.5,0000.0,0012.27,0005.87,0004.85
2023-07-30 19:18:00,SystemResetWarning,0835.5,5.02,000.00,032.1,025.5,000.0,038.9,031.1,34.7,0000.0,0012.54,0005.79,0004.79
2023-07-30 19:19:00,SystemResetWarning,0835.5,4.99,000.00,032.1,025.3,000.0,038.9,031.1,34.6,0000.0,0012.72,0005.73,0004.74
2023-07-30 19:20:00,SystemResetWarning,0835.5,4.98,000.00,032.0,025.6,000.0,039.0,030.9,35.1,0000.0,0012.72,0005.72,0004.73
2023-07-30 19:21:00,SystemResetWarning,0835.5,5.05,000.00,032.0,026.0,000.0,039.1,031.0,34.5,0000.0,0013.05,0005.84,0004.76
2023-07-30 19:22:00,SystemResetWarning,0835.5,4.95,000.00,032.1,026.5,000.0,039.2,031.2,35.3,0000.0,0013.78,0005.87,0004.78
2023-07-30 19:23:00,SystemResetWarning,0835.5,5.06,000.00,032.3,026.9,000.0,039.3,031.3,34.7,0000.0,0014.78,0005.88,0004.79
2023-07-30 19:24:00,SystemResetWarning,0835.5,4.95,000.00,032.4,027.2,000.0,039.3,031.5,33.7,0000.0,0015.28,0005.94,0004.82
2023-07-30 19:25:00,SystemResetWarning,0835.5,5.03,000.00,032.6,026.6,000.0,039.3,031.5,33.2,0000.0,0015.70,0006.02,0004.84
2023-07-30 19:26:00,SystemResetWarning,0835.5,4.99,000.00,032.6,025.6,000.0,039.3,031.3,33.4,0000.0,0015.05,0006.04,0004.86
2023-07-30 19:27:00,SystemResetWarning,0835.5,4.99,000.00,032.6,025.4,000.0,039.3,031.2,33.0,0000.0,0016.01,0006.15,0004.93
2023-07-30 19:28:00,SystemResetWarning,0835.5,4.99,000.00,032.4,025.7,000.0,039.4,031.0,33.2,0000.0,0016.26,0006.23,0004.99
2023-07-30 19:29:00,SystemResetWarning,0835.4,5.01,000.00,032.3,026.1,000.0,039.5,031.1,34.4,0000.0,0015.99,0006.31,0005.06
2023-07-30 19:30:00,SystemResetWarning,0835.5,5.01,000.00,032.2,026.5,000.0,039.6,031.2,35.0,0000.0,0015.84,0006.39,0005.13
2023-07-30 19:31:00,SystemResetWarning,0835.5,5.00,000.00,032.3,027.0,000.0,039.6,031.3,34.6,0000.0,0015.83,0006.45,0005.19
2023-07-30 19:32:00,SystemResetWarning,0835.4,4.98,000.00,032.3,027.0,000.0,039.6,031.4,34.5,0000.0,0015.77,0006.43,0005.24
2023-07-30 19:33:00,SystemResetWarning,0835.3,5.01,000.00,032.4,025.9,000.0,039.5,031.4,35.0,0000.0,0015.67,0006.48,0005.29
2023-07-30 19:34:00,SystemResetWarning,0835.5,5.01,000.00,032.4,025.3,000.0,039.4,031.2,34.0,0000.0,0014.97,0006.53,0005.33
2023-07-30 19:35:00,SystemResetWarning,0835.3,4.99,000.00,032.3,025.4,000.0,039.4,031.1,34.1,0000.0,0014.95,0006.59,0005.37
2023-07-30 19:36:00,SystemResetWarning,0835.2,4.99,000.00,032.2,025.8,000.0,039.5,031.0,34.4,0000.0,0014.79,0006.63,0005.42
2023-07-30 19:37:00,SystemResetWarning,0835.2,5.04,000.00,032.2,026.2,000.0,039.6,031.2,35.1,0000.0,0014.34,0006.65,0005.46
2023-07-30 19:38:00,SystemResetWarning,0835.2,4.97,000.00,032.3,026.7,000.0,039.6,031.3,34.1,0000.0,0013.34,0006.62,0005.48
2023-07-30 19:39:00,SystemResetWarning,0835.2,5.00,000.00,032.3,027.1,000.0,039.6,031.4,34.1,0000.0,0013.15,0006.65,0005.50
2023-07-30 19:40:00,SystemResetWarning,0835.2,5.02,000.00,032.4,027.1,000.0,039.6,031.5,33.6,0000.0,0013.29,0006.70,0005.51
2023-07-30 19:41:00,SystemResetWarning,0835.3,4.99,000.00,032.4,026.0,000.0,039.5,031.3,33.3,0000.0,0013.74,0006.75,0005.53
2023-07-30 19:42:00,SystemResetWarning,0835.2,4.99,000.00,032.3,025.4,000.0,039.5,031.2,32.8,0000.0,0014.35,0006.79,0005.53
2023-07-30 19:43:00,SystemResetWarning,0835.2,5.02,000.00,032.2,025.5,000.0,039.5,031.0,32.4,0000.0,0015.50,0006.81,0005.54
2023-07-30 19:44:00,SystemResetWarning,0835.2,5.00,000.00,032.0,025.8,000.0,039.5,031.0,33.3,0000.0,0017.29,0006.86,0005.55
2023-07-30 19:45:00,SystemResetWarning,0835.2,4.99,000.00,031.9,026.3,000.0,039.6,031.1,33.6,0000.0,0017.58,0006.93,0005.58
2023-07-30 19:46:00,SystemResetWarning,0835.2,5.00,000.00,031.9,026.8,000.0,039.6,031.2,33.6,0000.0,0018.01,0006.97,0005.61
2023-07-30 19:47:00,SystemResetWarning,0835.3,4.99,000.00,031.8,027.1,000.0,039.6,031.3,33.5,0000.0,0018.59,0007.00,0005.63
2023-07-30 19:48:00,SystemResetWarning,0835.2,4.98,000.00,031.8,026.5,000.0,039.5,031.2,33.1,0000.0,0019.42,0007.07,0005.65
2023-07-30 19:49:00,SystemResetWarning,0835.1,5.00,000.00,031.7,025.4,000.0,039.4,031.0,33.3,0000.0,0019.76,0007.12,0005.67
2023-07-30 19:50:00,SystemResetWarning,0835.1,5.00,000.00,031.6,025.3,000.0,039.3,030.9,34.1,0000.0,0019.84,0007.13,0005.68
2023-07-30 19:51:00,SystemResetWarning,0835.2,5.01,000.00,031.4,025.6,000.0,039.3,030.8,33.8,0000.0,0019.41,0007.12,0005.68
2023-07-30 19:52:00,SystemResetWarning,0835.1,5.01,000.00,031.3,026.0,000.0,039.3,030.9,34.7,0000.0,0019.54,0007.09,0005.68
2023-07-30 19:53:00,SystemResetWarning,0835.1,5.00,000.00,031.4,026.4,000.0,039.3,031.0,35.0,0000.0,0018.95,0007.08,0005.69
2023-07-30 19:54:00,SystemResetWarning,0835.1,5.00,000.00,031.5,026.9,000.0,039.3,031.2,34.7,0000.0,0018.12,0007.08,0005.71
2023-07-30 19:55:00,SystemResetWarning,0835.2,4.99,000.00,031.5,027.2,000.0,039.3,031.3,32.9,0000.0,0016.45,0007.08,0005.72
2023-07-30 19:56:00,SystemResetWarning,0835.1,4.99,000.00,031.6,026.6,000.0,039.2,031.3,32.3,0000.0,0016.79,0007.06,0005.71
2023-07-30 19:57:00,SystemResetWarning,0835.1,5.01,000.00,031.6,025.5,000.0,039.0,031.1,34.4,0000.0,0016.73,0007.06,0005.71
2023-07-30 19:58:00,SystemResetWarning,0835.1,5.00,000.00,031.5,025.3,000.0,039.0,030.9,34.8,0000.0,0016.67,0007.06,0005.72
2023-07-30 19:59:00,SystemResetWarning,0835.1,5.01,000.00,031.3,025.6,000.0,039.0,030.8,34.5,0000.0,0016.24,0007.02,0005.74
